period_start,C,m1,H,J0,J1,J2,J3,J4,J5,JA,JB,JC,JD,JJ,JK,JN,#
2018-05-04 00:03:07,0.13,4.71,0.00,25.70,28.35,31.12,13.86,47.71,1021.99,2018.01,1987.65,2054.54,2320.10,600.20,593.93,48.09,0000 0000 0000 0000 000000
2018-05-04 00:08:08,0.13,4.72,0.00,25.73,28.37,31.16,13.86,47.83,1021.99,2018.00,1986.39,2053.50,2318.82,599.82,593.62,48.14,0000 0000 0000 0000 000000
2018-05-04 00:13:10,0.12,4.73,0.00,25.76,28.37,31.15,13.78,47.79,1022.00,2018.00,1985.11,2052.47,2317.56,599.56,593.33,48.19,0000 0000 0000 0000 000000
2018-05-04 00:18:11,0.11,4.73,0.00,25.77,28.40,31.18,13.86,47.82,1022.01,2018.00,1984.02,2051.44,2316.39,600.26,593.91,48.24,0000 0000 0000 0000 000000
2018-05-04 00:23:12,0.12,4.74,0.00,25.81,28.41,31.20,13.73,47.78,1022.12,2018.00,1982.88,2050.49,2315.26,599.71,593.28,48.29,0000 0000 0000 0000 000000
2018-05-04 00:28:14,0.13,4.75,0.00,25.85,28.42,31.21,13.82,47.80,1022.38,2018.00,1981.61,2049.45,2313.95,599.94,593.63,48.34,0000 0000 0000 0000 000000
2018-05-04 00:33:15,0.12,4.75,0.00,25.87,28.45,31.23,13.81,47.82,1022.42,2017.98,1980.43,2048.47,2312.71,600.08,593.76,48.39,0000 0000 0000 0000 000000
2018-05-04 00:38:16,0.13,4.76,0.00,25.88,28.46,31.25,13.87,47.85,1022.47,2017.98,1979.11,2047.29,2311.44,600.15,593.83,48.44,0000 0000 0000 0000 000000
2018-05-04 00:43:17,0.11,4.76,0.00,25.94,28.48,31.27,13.78,47.78,1022.48,2017.95,1977.77,2046.58,2310.22,600.14,593.73,48.49,0000 0000 0000 0000 000000
2018-05-04 00:48:19,0.12,4.77,0.00,25.95,28.50,31.28,13.79,47.83,1022.48,2017.93,1976.60,2045.61,2308.97,599.78,593.36,48.54,0000 0000 0000 0000 000000
2018-05-04 00:53:20,0.09,4.78,0.00,25.95,28.52,31.30,13.83,47.77,1022.49,2017.70,1975.33,2044.52,2307.74,600.01,593.61,48.59,0000 0000 0000 0000 000000
2018-05-04 00:58:21,0.07,4.78,0.00,26.02,28.55,31.31,13.80,47.83,1022.49,2017.26,1974.01,2043.50,2306.51,599.97,593.29,48.65,0000 0000 0000 0000 000000
2018-05-04 01:03:22,0.12,4.79,0.00,26.06,28.56,31.34,13.84,47.79,1022.50,2017.12,1972.77,2042.54,2305.29,599.97,593.29,48.70,0000 0000 0000 0000 000000
2018-05-04 01:08:24,0.11,4.79,0.00,26.06,28.59,31.36,13.84,47.77,1022.50,2017.02,1971.56,2041.47,2304.11,599.89,593.24,48.75,0000 0000 0000 0000 000000
2018-05-04 01:13:25,0.12,4.80,0.00,26.10,28.61,31.39,13.81,47.75,1022.57,2017.00,1970.28,2040.52,2302.96,599.99,593.30,48.80,0000 0000 0000 0000 000000
2018-05-04 01:18:27,0.14,4.80,0.00,25.98,28.62,31.43,13.81,47.83,1022.78,2017.00,1968.99,2039.57,2301.75,600.00,593.66,48.85,0000 0000 0000 0000 000000
2018-05-04 01:23:28,0.13,4.81,0.00,25.58,28.63,31.53,13.90,47.83,1022.94,2017.00,1967.63,2038.53,2300.60,599.84,594.41,48.90,0000 0000 0000 0000 000000
2018-05-04 01:28:29,0.08,4.82,0.00,25.44,28.61,31.61,13.88,47.92,1022.96,2017.00,1966.34,2037.88,2299.61,600.48,595.32,48.95,0000 0000 0000 0000 000000
2018-05-04 01:33:30,0.09,4.82,0.00,25.63,28.57,31.39,13.87,47.91,1022.96,2017.02,1965.47,2037.07,2298.88,599.94,594.38,49.00,0000 0000 0000 0000 000000
2018-05-04 01:38:32,0.08,4.83,0.00,25.75,28.54,31.10,13.78,47.97,1022.96,2017.12,1964.78,2036.50,2298.08,599.86,594.03,49.05,0000 0000 0000 0000 000000
2018-05-04 01:43:33,0.10,4.83,0.00,25.85,28.52,31.19,13.85,47.88,1022.96,2017.33,1963.95,2035.92,2297.27,600.15,594.16,49.10,0000 0000 0000 0000 000000
2018-05-04 01:48:35,0.13,4.84,0.00,26.02,28.50,31.14,13.83,47.83,1022.96,2017.58,1962.93,2035.11,2296.46,599.89,593.60,49.15,0000 0000 0000 0000 000000
2018-05-04 01:53:35,0.10,4.84,0.00,26.05,28.47,31.14,13.75,47.78,1022.99,2017.69,1961.90,2034.41,2295.62,599.88,593.62,49.20,0000 0000 0000 0000 000000
2018-05-04 01:58:37,0.11,4.85,0.00,26.12,28.45,31.17,13.77,47.85,1022.99,2017.76,1960.91,2033.76,2294.70,599.61,593.17,49.25,0000 0000 0000 0000 000000
2018-05-04 02:03:38,0.08,4.85,0.00,26.17,28.44,31.14,13.80,47.78,1023.03,2017.87,1959.99,2033.02,2293.87,600.11,593.60,49.30,0000 0000 0000 0000 000000
2018-05-04 02:08:39,0.11,4.86,0.00,26.07,28.42,31.08,13.84,47.83,1023.24,2017.92,1958.97,2032.25,2292.97,599.97,593.72,49.35,0000 0000 0000 0000 000000
2018-05-04 02:13:40,0.09,4.86,0.00,25.92,28.41,31.06,13.77,47.78,1023.37,2017.92,1957.94,2031.73,2292.07,599.95,594.09,49.40,0000 0000 0000 0000 000000
2018-05-04 02:18:42,0.08,4.87,0.00,25.92,28.40,31.06,13.87,47.88,1023.44,2017.91,1956.93,2030.99,2291.15,600.19,594.41,49.45,0000 0000 0000 0000 000000
2018-05-04 02:23:43,0.11,4.87,0.00,25.91,28.40,31.07,13.87,47.85,1023.45,2017.98,1955.98,2030.18,2290.40,600.12,594.29,49.50,0000 0000 0000 0000 000000
2018-05-04 02:28:44,0.09,4.88,0.00,25.91,28.40,31.08,13.76,47.92,1023.45,2017.99,1955.07,2029.61,2289.56,599.96,594.19,49.55,0000 0000 0000 0000 000000
2018-05-04 02:33:45,0.07,4.88,0.00,26.01,28.40,31.06,13.86,47.90,1023.46,2017.98,1954.14,2028.94,2288.74,599.85,593.86,49.61,0000 0000 0000 0000 000000
2018-05-04 02:38:46,0.10,4.89,0.00,26.03,28.40,31.10,13.79,47.79,1023.45,2017.98,1953.21,2028.10,2287.88,599.77,593.75,49.66,0000 0000 0000 0000 000000
2018-05-04 02:43:47,0.10,4.89,0.00,26.02,28.41,31.11,13.88,47.80,1023.45,2017.98,1952.31,2027.47,2287.02,600.21,593.99,49.71,0000 0000 0000 0000 000000
2018-05-04 02:48:48,0.07,4.90,0.00,26.13,28.42,31.13,13.89,47.77,1023.46,2017.98,1951.55,2026.85,2286.12,600.01,593.90,49.76,0000 0000 0000 0000 000000
2018-05-04 02:53:50,0.10,4.90,0.00,26.17,28.44,31.15,13.82,47.71,1023.48,2017.96,1950.53,2026.03,2285.23,600.20,593.90,49.81,0000 0000 0000 0000 000000
2018-05-04 02:58:51,0.10,4.91,0.00,26.12,28.45,31.19,13.77,47.73,1023.60,2017.98,1949.74,2025.23,2284.35,599.55,593.44,49.86,0000 0000 0000 0000 000000
2018-05-04 03:03:52,0.07,4.91,0.00,26.20,28.47,31.21,13.85,47.73,1023.88,2017.91,1948.91,2024.66,2283.56,600.31,594.08,49.91,0000 0000 0000 0000 000000
2018-05-04 03:08:54,0.03,4.91,0.00,26.24,28.50,31.25,13.79,47.77,1023.93,2017.71,1948.16,2023.99,2282.76,599.76,593.58,49.96,0000 0000 0000 0000 000000
2018-05-04 03:13:55,0.05,4.92,0.00,26.26,28.52,31.28,13.82,47.77,1023.94,2017.23,1947.22,2023.15,2281.90,599.82,593.67,50.01,0000 0000 0000 0000 000000
2018-05-04 03:18:56,0.08,4.92,0.00,26.28,28.55,31.31,13.87,47.75,1023.94,2017.10,1946.40,2022.48,2281.06,600.15,593.86,50.06,0000 0000 0000 0000 000000
2018-05-04 03:23:57,0.06,4.92,0.00,26.38,28.57,31.33,13.79,47.72,1023.95,2017.04,1945.64,2021.90,2280.21,599.63,593.33,50.11,0000 0000 0000 0000 000000
2018-05-04 03:28:58,0.09,4.93,0.00,26.45,28.60,31.36,13.80,47.73,1023.96,2017.01,1944.77,2021.08,2279.38,600.06,593.36,50.16,0000 0000 0000 0000 000000
2018-05-04 03:33:59,0.12,4.93,0.00,26.41,28.63,31.40,13.87,47.70,1023.98,2017.00,1943.71,2020.33,2278.49,599.84,593.26,50.21,0000 0000 0000 0000 000000
2018-05-04 03:39:01,0.09,4.94,0.00,26.47,28.66,31.43,13.76,47.63,1024.18,2017.00,1942.82,2019.59,2277.55,599.75,593.30,50.26,0000 0000 0000 0000 000000
2018-05-04 03:44:02,0.07,4.94,0.00,26.56,28.70,31.46,13.74,47.66,1024.40,2016.99,1941.87,2018.89,2276.72,600.20,593.63,50.31,0000 0000 0000 0000 000000
2018-05-04 03:49:03,0.11,4.95,0.00,26.61,28.73,31.50,13.78,47.64,1024.43,2016.96,1940.80,2018.08,2275.76,600.16,593.49,50.36,0000 0000 0000 0000 000000
2018-05-04 03:54:05,0.05,4.95,0.00,26.59,28.77,31.54,13.76,47.60,1024.43,2016.71,1939.97,2017.29,2274.95,599.62,593.04,50.41,0000 0000 0000 0000 000000
2018-05-04 03:59:06,0.03,4.95,0.00,26.66,28.81,31.57,13.80,47.74,1024.43,2016.18,1939.09,2016.67,2274.04,599.97,593.25,50.46,0000 0000 0000 0000 000000
2018-05-04 04:04:08,0.10,4.96,0.00,26.72,28.84,31.60,13.73,47.65,1024.44,2016.02,1937.76,2015.89,2273.05,599.80,593.09,50.52,0000 0000 0000 0000 000000
2018-05-04 04:09:09,0.10,4.96,0.00,26.75,28.88,31.64,13.78,47.64,1024.44,2016.01,1936.64,2015.01,2272.13,599.94,593.07,50.57,0000 0000 0000 0000 000000
2018-05-04 04:14:11,0.10,4.97,0.00,26.75,28.92,31.69,13.76,47.60,1024.44,2016.00,1935.66,2014.12,2271.18,599.99,593.13,50.62,0000 0000 0000 0000 000000
2018-05-04 04:19:12,0.11,4.97,0.00,26.85,28.96,31.73,13.72,47.68,1024.51,2015.99,1934.54,2013.34,2270.19,599.90,592.88,50.67,0000 0000 0000 0000 000000
2018-05-04 04:24:14,0.10,4.98,0.00,26.89,28.99,31.76,13.69,47.68,1024.74,2015.93,1933.41,2012.54,2269.21,599.74,592.85,50.72,0000 0000 0000 0000 000000
2018-05-04 04:29:15,0.05,4.98,0.00,26.95,29.03,31.81,13.80,47.64,1024.76,2015.70,1932.32,2011.80,2268.29,600.15,593.06,50.77,0000 0000 0000 0000 000000
2018-05-04 04:34:16,0.04,4.99,0.00,26.98,29.07,31.84,13.79,47.73,1024.83,2015.11,1931.30,2011.02,2267.37,599.87,592.71,50.82,0000 0000 0000 0000 000000
2018-05-04 04:39:17,0.10,4.99,0.00,27.00,29.11,31.89,13.84,47.68,1024.90,2015.02,1930.18,2010.20,2266.44,600.31,593.20,50.87,0000 0000 0000 0000 000000
2018-05-04 04:44:19,0.13,5.00,0.00,27.09,29.15,31.94,13.81,47.66,1024.91,2015.00,1928.82,2009.25,2265.31,599.97,592.75,50.92,0000 0000 0000 0000 000000
2018-05-04 04:49:20,0.10,5.00,0.00,27.12,29.19,31.97,13.80,47.54,1024.92,2014.98,1927.75,2008.56,2264.36,599.97,592.65,50.97,0000 0000 0000 0000 000000
2018-05-04 04:54:21,0.06,5.01,0.00,27.18,29.23,32.01,13.84,47.54,1024.92,2014.81,1926.71,2007.79,2263.52,600.33,592.81,51.02,0000 0000 0000 0000 000000
2018-05-04 04:59:22,0.06,5.01,0.00,27.22,29.28,32.04,13.83,47.58,1024.92,2014.30,1925.58,2006.93,2262.51,600.30,592.65,51.07,0000 0000 0000 0000 000000
2018-05-04 05:04:23,0.10,5.01,0.00,27.22,29.32,32.09,13.76,47.60,1024.94,2014.05,1924.31,2006.07,2261.40,599.87,592.34,51.12,0000 0000 0000 0000 000000
2018-05-04 05:09:24,0.11,5.02,0.00,27.30,29.36,32.12,13.76,47.69,1025.18,2014.00,1923.22,2005.22,2260.43,599.93,592.38,51.17,0000 0000 0000 0000 000000
2018-05-04 05:14:26,0.11,5.03,0.00,27.33,29.40,32.17,13.78,47.63,1025.33,2013.99,1922.03,2004.39,2259.47,600.07,592.54,51.22,0000 0000 0000 0000 000000
2018-05-04 05:19:27,0.10,5.03,0.00,27.38,29.44,32.21,13.72,47.69,1025.32,2013.97,1920.94,2003.58,2258.46,599.40,591.80,51.27,0000 0000 0000 0000 000000
2018-05-04 05:24:28,0.06,5.04,0.00,27.40,29.49,32.25,13.75,47.69,1025.39,2013.77,1919.92,2002.76,2257.53,600.07,592.38,51.32,0000 0000 0000 0000 000000
2018-05-04 05:29:29,0.03,5.04,0.00,27.42,29.53,32.29,13.78,47.60,1025.40,2013.26,1918.94,2001.93,2256.56,599.93,592.30,51.37,0000 0000 0000 0000 000000
2018-05-04 05:34:31,0.10,5.04,0.00,27.46,29.56,32.35,13.77,47.63,1025.40,2013.02,1917.78,2001.07,2255.52,599.82,592.15,51.43,0000 0000 0000 0000 000000
2018-05-04 05:39:32,0.11,5.05,0.00,27.50,29.61,32.38,13.71,47.62,1025.41,2013.00,1916.80,2000.24,2254.60,599.66,591.89,51.48,0000 0000 0000 0000 000000
2018-05-04 05:44:33,0.10,5.05,0.00,27.57,29.65,32.42,13.73,47.61,1025.42,2012.99,1915.75,1999.57,2253.69,600.33,592.28,51.53,0000 0000 0000 0000 000000
2018-05-04 05:49:34,0.10,5.06,0.00,27.57,29.68,32.45,13.76,47.54,1025.44,2012.96,1914.65,1998.78,2252.70,600.25,592.30,51.58,0000 0000 0000 0000 000000
2018-05-04 05:54:35,0.05,5.06,0.00,27.60,29.72,32.51,13.77,47.52,1025.47,2012.80,1913.70,1998.00,2251.87,600.12,592.16,51.63,0000 0000 0000 0000 000000
2018-05-04 05:59:37,0.04,5.06,0.00,27.60,29.76,32.54,13.76,47.73,1025.64,2012.12,1912.54,1997.11,2250.89,599.70,591.93,51.68,0000 0000 0000 0000 000000
2018-05-04 06:04:38,0.11,5.07,0.00,27.58,29.79,32.57,13.76,47.63,1025.84,2012.01,1911.48,1996.28,2249.89,600.07,592.29,51.73,0000 0000 0000 0000 000000
2018-05-04 06:09:39,0.09,5.07,0.00,27.64,29.82,32.60,13.81,47.66,1025.89,2012.00,1910.61,1995.66,2248.94,600.02,592.18,51.78,0000 0000 0000 0000 000000
2018-05-04 06:14:41,0.10,5.08,0.00,27.67,29.86,32.64,13.70,47.51,1025.89,2011.99,1909.23,1994.83,2247.98,599.90,592.03,51.83,0000 0000 0000 0000 000000
2018-05-04 06:19:42,0.10,5.08,0.00,27.71,29.90,32.69,13.82,47.58,1025.89,2011.95,1908.31,1993.99,2247.03,600.26,592.21,51.88,0000 0000 0000 0000 000000
2018-05-04 06:24:43,0.06,5.09,0.00,27.75,29.93,32.71,13.80,47.66,1025.90,2011.61,1907.15,1993.12,2245.99,599.58,591.57,51.93,0000 0000 0000 0000 000000
2018-05-04 06:29:44,0.08,5.09,0.00,27.82,29.96,32.74,13.76,47.53,1025.91,2011.19,1906.14,1992.29,2245.11,600.00,591.85,51.98,0000 0000 0000 0000 000000
2018-05-04 06:34:46,0.08,5.09,0.00,27.83,30.01,32.78,13.80,47.51,1025.92,2011.03,1905.28,1991.63,2244.30,600.25,592.10,52.03,0000 0000 0000 0000 000000
2018-05-04 06:39:47,0.08,5.10,0.00,27.85,30.04,32.81,13.75,47.54,1025.92,2011.00,1904.05,1990.85,2243.24,599.56,591.47,52.08,0000 0000 0000 0000 000000
2018-05-04 06:44:48,0.10,5.11,0.00,27.86,30.07,32.85,13.79,47.58,1026.08,2011.00,1903.01,1990.02,2242.25,600.16,591.88,52.13,0000 0000 0000 0000 000000
2018-05-04 06:49:49,0.12,5.11,0.00,27.90,30.11,32.88,13.81,47.59,1026.28,2010.98,1901.81,1989.16,2241.28,600.11,591.97,52.18,0000 0000 0000 0000 000000
2018-05-04 06:54:50,0.13,5.12,0.00,27.91,30.14,32.92,13.75,47.48,1026.36,2010.87,1900.48,1988.13,2240.01,599.72,591.64,52.23,0000 0000 0000 0000 000000
2018-05-04 06:59:52,0.21,5.13,0.00,27.93,30.17,32.95,13.77,47.56,1026.38,2010.64,1898.03,1986.49,2238.27,600.02,591.90,52.28,0000 0000 0000 0000 000000
2018-05-04 07:04:53,0.08,5.13,0.00,27.98,30.21,32.98,13.76,47.48,1026.38,2010.23,1896.33,1985.43,2236.98,600.17,591.97,52.33,0000 0000 0000 0000 000000
2018-05-04 07:09:54,0.14,5.14,0.00,28.00,30.24,33.00,13.72,47.51,1026.39,2010.09,1894.84,1984.47,2235.71,599.91,591.68,52.39,0000 0000 0000 0000 000000
2018-05-04 07:14:55,0.14,5.15,0.00,28.03,30.27,33.05,13.72,47.56,1026.40,2010.03,1893.15,1983.47,2234.47,599.87,591.63,52.44,0000 0000 0000 0000 000000
2018-05-04 07:19:57,0.15,5.15,0.00,28.08,30.31,33.07,13.81,47.56,1026.51,2010.00,1891.51,1982.45,2233.11,599.97,591.46,52.49,0000 0000 0000 0000 000000
2018-05-04 07:24:58,0.15,5.16,0.00,28.13,30.34,33.10,13.75,47.57,1026.77,2010.00,1889.94,1981.34,2231.84,600.04,591.63,52.54,0000 0000 0000 0000 000000
2018-05-04 07:29:59,0.16,5.17,0.00,28.13,30.37,33.13,13.78,47.58,1026.86,2009.98,1888.35,1980.27,2230.54,599.94,591.80,52.59,0000 0000 0000 0000 000000
2018-05-04 07:35:00,0.13,5.18,0.00,28.16,30.40,33.16,13.82,47.52,1026.87,2009.82,1886.72,1979.16,2229.18,600.42,592.15,52.64,0000 0000 0000 0000 000000
2018-05-04 07:40:02,0.08,5.18,0.00,28.22,30.43,33.19,13.72,47.48,1026.88,2009.23,1885.22,1977.98,2227.81,599.83,591.46,52.69,0000 0000 0000 0000 000000
2018-05-04 07:45:03,0.13,5.19,0.00,28.26,30.47,33.23,13.78,47.50,1026.88,2009.03,1883.71,1976.88,2226.50,600.14,591.64,52.74,0000 0000 0000 0000 000000
2018-05-04 07:50:04,0.13,5.20,0.00,28.27,30.51,33.24,13.79,47.54,1026.94,2009.00,1882.27,1975.89,2225.23,600.43,591.98,52.79,0000 0000 0000 0000 000000
2018-05-04 07:55:06,0.16,5.21,0.00,28.33,30.54,33.28,13.74,47.43,1027.01,2009.00,1880.80,1974.77,2223.96,599.71,591.14,52.84,0000 0000 0000 0000 000000
2018-05-04 08:00:07,0.15,5.21,0.00,28.36,30.58,33.31,13.73,47.49,1027.30,2009.00,1879.55,1973.71,2222.70,600.01,591.46,52.89,0000 0000 0000 0000 000000
2018-05-04 08:05:09,0.13,5.22,0.00,28.41,30.61,33.35,13.74,47.55,1027.36,2008.95,1878.10,1972.66,2221.42,600.03,591.41,52.94,0000 0000 0000 0000 000000
2018-05-04 08:10:10,0.10,5.23,0.00,28.44,30.65,33.39,13.75,47.56,1027.36,2008.77,1876.83,1971.67,2220.21,599.66,591.14,52.99,0000 0000 0000 0000 000000
2018-05-04 08:15:11,0.08,5.23,0.00,28.49,30.69,33.40,13.77,47.48,1027.36,2008.28,1875.60,1970.64,2219.04,600.42,591.76,53.04,0000 0000 0000 0000 000000
2018-05-04 08:20:12,0.12,5.24,0.00,28.53,30.73,33.45,13.74,47.54,1027.37,2008.04,1874.28,1969.61,2217.78,600.04,591.26,53.09,0000 0000 0000 0000 000000
2018-05-04 08:25:14,0.14,5.24,0.00,28.56,30.77,33.47,13.72,47.59,1027.38,2008.00,1873.07,1968.55,2216.54,599.48,590.71,53.14,0000 0000 0000 0000 000000
2018-05-04 08:30:15,0.15,5.25,0.00,28.59,30.81,33.52,13.74,47.54,1027.43,2008.00,1871.57,1967.51,2215.30,600.07,591.28,53.19,0000 0000 0000 0000 000000
2018-05-04 08:35:16,0.16,5.26,0.00,28.60,30.85,33.55,13.74,47.53,1027.68,2007.99,1869.91,1966.32,2213.85,599.90,591.21,53.24,0000 0000 0000 0000 000000
2018-05-04 08:40:17,0.13,5.27,0.00,28.63,30.89,33.58,13.78,47.63,1027.84,2007.84,1868.47,1965.22,2212.57,600.24,591.59,53.29,0000 0000 0000 0000 000000
2018-05-04 08:45:19,0.06,5.27,0.00,28.68,30.93,33.61,13.74,47.62,1027.85,2007.27,1867.16,1964.23,2211.39,599.81,591.11,53.34,0000 0000 0000 0000 000000
2018-05-04 08:50:20,0.13,5.28,0.00,28.66,30.96,33.65,13.79,47.48,1027.85,2007.06,1865.67,1963.18,2210.10,600.20,591.51,53.40,0000 0000 0000 0000 000000
2018-05-04 08:55:21,0.12,5.28,0.00,28.69,31.00,33.68,13.75,47.50,1027.85,2007.01,1864.36,1962.18,2208.93,600.28,591.36,53.45,0000 0000 0000 0000 000000
2018-05-04 09:00:23,0.13,5.29,0.00,28.72,31.03,33.72,13.75,47.58,1027.86,2006.99,1863.04,1961.29,2207.77,600.09,591.07,53.50,0000 0000 0000 0000 000000
2018-05-04 09:05:24,0.13,5.30,0.00,28.69,31.06,33.74,13.76,47.53,1027.88,2006.99,1861.85,1960.40,2206.60,599.90,591.17,53.55,0000 0000 0000 0000 000000
2018-05-04 09:10:25,0.11,5.30,0.00,28.75,31.10,33.78,13.77,47.48,1027.95,2006.93,1860.65,1959.54,2205.57,600.06,591.25,53.60,0000 0000 0000 0000 000000
2018-05-04 09:15:27,0.06,5.31,0.00,28.75,31.13,33.80,13.71,47.44,1028.08,2006.52,1859.43,1958.53,2204.40,599.71,591.08,53.65,0000 0000 0000 0000 000000
2018-05-04 09:20:28,0.09,5.31,0.00,28.80,31.16,33.84,13.73,47.49,1028.17,2006.09,1858.12,1957.53,2203.25,599.73,590.94,53.70,0000 0000 0000 0000 000000
2018-05-04 09:25:29,0.12,5.32,0.00,28.84,31.20,33.88,13.72,47.53,1028.14,2006.02,1856.86,1956.69,2202.13,600.36,591.43,53.75,0000 0000 0000 0000 000000
2018-05-04 09:30:31,0.12,5.32,0.00,28.84,31.23,33.90,13.74,47.56,1028.28,2006.00,1855.70,1955.78,2201.01,600.16,591.49,53.80,0000 0000 0000 0000 000000
2018-05-04 09:35:32,0.14,5.33,0.00,28.88,31.26,33.94,13.80,47.42,1028.33,2005.99,1854.56,1954.78,2199.84,600.12,591.26,53.85,0000 0000 0000 0000 000000
2018-05-04 09:40:33,0.11,5.34,0.00,28.91,31.29,33.97,13.74,47.48,1028.33,2005.94,1853.30,1953.85,2198.71,599.86,590.94,53.90,0000 0000 0000 0000 000000
2018-05-04 09:45:34,0.08,5.34,0.00,28.92,31.32,34.00,13.68,47.57,1028.35,2005.72,1852.08,1952.96,2197.63,599.29,590.41,53.95,0000 0000 0000 0000 000000
2018-05-04 09:50:35,0.07,5.34,0.00,28.94,31.35,34.03,13.81,47.45,1028.37,2005.19,1850.92,1952.08,2196.52,599.99,591.15,54.00,0000 0000 0000 0000 000000
2018-05-04 09:55:37,0.12,5.35,0.00,28.98,31.37,34.06,13.72,47.32,1028.67,2005.02,1849.70,1951.19,2195.45,599.86,590.93,54.05,0000 0000 0000 0000 000000
2018-05-04 10:00:38,0.13,5.36,0.00,29.02,31.40,34.11,13.71,47.33,1028.82,2005.00,1848.50,1950.22,2194.34,600.02,591.25,54.10,0000 0000 0000 0000 000000
2018-05-04 10:05:40,0.12,5.36,0.00,29.01,31.43,34.13,13.79,47.34,1028.82,2005.00,1847.41,1949.37,2193.36,599.91,591.19,54.15,0000 0000 0000 0000 000000
2018-05-04 10:10:41,0.11,5.37,0.00,29.04,31.46,34.17,13.71,47.40,1028.82,2005.00,1846.39,1948.64,2192.42,599.75,590.95,54.20,0000 0000 0000 0000 000000
2018-05-04 10:15:43,0.10,5.37,0.00,29.06,31.49,34.21,13.76,47.45,1028.83,2004.96,1845.17,1947.76,2191.33,599.98,591.05,54.25,0000 0000 0000 0000 000000
2018-05-04 10:20:44,0.09,5.38,0.00,29.07,31.51,34.24,13.73,47.26,1028.86,2004.79,1843.96,1946.89,2190.24,600.19,591.15,54.30,0000 0000 0000 0000 000000
2018-05-04 10:25:45,0.07,5.38,0.00,29.11,31.55,34.27,13.71,47.31,1028.98,2004.28,1842.75,1945.97,2189.17,599.77,590.87,54.36,0000 0000 0000 0000 000000
2018-05-04 10:30:46,0.11,5.39,0.00,29.11,31.58,34.32,13.76,47.48,1029.08,2004.04,1841.57,1945.07,2188.09,599.78,591.15,54.41,0000 0000 0000 0000 000000
2018-05-04 10:35:47,0.12,5.39,0.00,29.12,31.62,34.37,13.70,47.42,1028.96,2004.01,1840.45,1944.17,2186.99,599.50,590.64,54.46,0000 0000 0000 0000 000000
2018-05-04 10:40:49,0.13,5.40,0.00,29.14,31.66,34.42,13.77,47.37,1029.11,2004.00,1839.17,1943.24,2185.88,600.22,591.23,54.51,0000 0000 0000 0000 000000
2018-05-04 10:45:50,0.13,5.41,0.00,29.17,31.69,34.46,13.76,47.39,1029.17,2003.98,1837.98,1942.35,2184.72,600.19,591.23,54.56,0000 0000 0000 0000 000000
2018-05-04 10:50:51,0.11,5.41,0.00,29.21,31.73,34.53,13.74,47.34,1029.20,2003.88,1836.92,1941.40,2183.66,599.99,591.07,54.61,0000 0000 0000 0000 000000
2018-05-04 10:55:53,0.07,5.42,0.00,29.23,31.77,34.58,13.76,47.38,1029.31,2003.50,1835.81,1940.54,2182.63,599.87,591.04,54.66,0000 0000 0000 0000 000000
2018-05-04 11:00:54,0.09,5.42,0.00,29.28,31.81,34.63,13.77,47.33,1029.31,2003.13,1834.58,1939.69,2181.52,600.15,591.06,54.71,0000 0000 0000 0000 000000
2018-05-04 11:05:55,0.12,5.43,0.00,29.32,31.84,34.68,13.78,47.40,1029.31,2003.00,1833.33,1938.73,2180.42,599.99,590.86,54.76,0000 0000 0000 0000 000000
2018-05-04 11:10:57,0.13,5.43,0.00,29.33,31.88,34.72,13.76,47.33,1029.31,2003.00,1831.98,1937.78,2179.26,600.02,590.87,54.81,0000 0000 0000 0000 000000
2018-05-04 11:15:58,0.14,5.44,0.00,29.35,31.91,34.75,13.74,47.37,1029.32,2003.00,1830.65,1936.84,2178.07,600.10,590.90,54.86,0000 0000 0000 0000 000000
2018-05-04 11:20:59,0.14,5.45,0.00,29.37,31.95,34.79,13.69,47.34,1029.34,2002.99,1829.36,1935.82,2176.83,599.92,590.73,54.91,0000 0000 0000 0000 000000
2018-05-04 11:26:01,0.09,5.45,0.00,29.37,31.98,34.82,13.74,47.29,1029.38,2002.85,1828.19,1934.92,2175.75,600.13,590.76,54.96,0000 0000 0000 0000 000000
2018-05-04 11:31:02,0.03,5.46,0.00,29.37,32.01,34.84,13.76,47.25,1029.62,2002.33,1827.46,1934.02,2174.82,600.28,590.98,55.01,0000 0000 0000 0000 000000
2018-05-04 11:36:03,0.14,5.46,0.00,29.35,32.03,34.87,13.70,47.13,1029.67,2002.03,1825.83,1932.99,2173.62,599.48,590.56,55.06,0000 0000 0000 0000 000000
2018-05-04 11:41:05,0.16,5.47,0.00,29.33,32.06,34.88,13.80,47.34,1029.75,2002.01,1823.99,1931.99,2172.27,600.37,591.46,55.11,0000 0000 0000 0000 000000
2018-05-04 11:46:06,0.15,5.48,0.00,29.32,32.07,34.89,13.75,47.27,1029.79,2002.00,1822.64,1931.01,2171.11,599.71,590.90,55.16,0000 0000 0000 0000 000000
2018-05-04 11:51:08,0.10,5.49,0.00,29.30,32.10,34.90,13.79,47.35,1029.80,2002.00,1821.66,1930.07,2170.04,599.83,590.97,55.21,0000 0000 0000 0000 000000
2018-05-04 11:56:09,0.13,5.49,0.00,29.28,32.11,34.91,13.75,47.34,1029.80,2001.98,1820.81,1929.17,2169.05,599.89,591.02,55.26,0000 0000 0000 0000 000000
2018-05-04 12:01:10,0.12,5.50,0.00,29.26,32.12,34.93,13.74,47.23,1029.80,2001.92,1819.63,1928.29,2167.91,599.99,591.26,55.32,0000 0000 0000 0000 000000
2018-05-04 12:06:11,0.12,5.50,0.00,29.19,32.12,34.95,13.80,47.38,1029.80,2001.73,1818.26,1927.36,2166.70,600.12,591.48,55.37,0000 0000 0000 0000 000000
2018-05-04 12:11:13,0.14,5.51,0.00,29.15,32.13,34.93,13.83,47.35,1029.80,2001.47,1816.59,1926.25,2165.48,600.12,591.43,55.42,0000 0000 0000 0000 000000
2018-05-04 12:16:14,0.08,5.52,0.00,29.11,32.13,34.94,13.69,47.30,1029.83,2001.33,1815.53,1925.45,2164.47,599.99,591.53,55.47,0000 0000 0000 0000 000000
2018-05-04 12:21:15,0.14,5.52,0.00,29.06,32.13,34.92,13.77,47.33,1029.83,2001.17,1814.21,1924.57,2163.45,600.31,592.05,55.52,0000 0000 0000 0000 000000
2018-05-04 12:26:16,0.15,5.53,0.00,29.06,32.12,34.89,13.80,47.29,1029.83,2001.10,1812.59,1923.48,2162.08,599.76,591.44,55.57,0000 0000 0000 0000 000000
2018-05-04 12:31:17,0.16,5.54,0.00,29.00,32.12,34.87,13.73,47.33,1029.95,2001.08,1811.03,1922.36,2160.69,599.77,591.76,55.62,0000 0000 0000 0000 000000
2018-05-04 12:36:18,0.16,5.55,0.00,28.98,32.12,34.87,13.81,47.28,1029.98,2001.12,1809.46,1921.21,2159.44,600.34,592.16,55.67,0000 0000 0000 0000 000000
2018-05-04 12:41:20,0.18,5.56,0.00,28.93,32.11,34.85,13.82,47.35,1029.89,2001.18,1807.76,1920.05,2157.97,599.74,591.81,55.72,0000 0000 0000 0000 000000
2018-05-04 12:46:21,0.26,5.57,0.00,28.88,32.10,34.85,13.87,47.48,1029.86,2001.10,1805.46,1918.44,2156.06,600.28,592.23,55.77,0000 0000 0000 0000 000000
2018-05-04 12:51:22,0.20,5.58,0.00,28.84,32.09,34.82,13.85,47.41,1029.94,2001.10,1803.39,1916.92,2154.27,600.08,592.31,55.82,0000 0000 0000 0000 000000
2018-05-04 12:56:23,0.21,5.59,0.00,28.81,32.07,34.79,13.82,47.33,1030.15,2001.09,1801.49,1915.57,2152.67,600.05,592.39,55.87,0000 0000 0000 0000 000000